This is the latest recevied weather packets stored in our database for station/object AD8BV. If no packets are shown the sender has not sent any weather packets the latest 10 day(s).
| Time | Temp. | Humidity | Pressure | Rain* | Wind** | Luminosity | Snow |
|---|---|---|---|---|---|---|---|
| 1777351843 | 15° C | 95% | 1004.2 hPa | 1.27 mm | - | 0 W/m² | - |
| 1777351541 | 15° C | 95% | 1004 hPa | 4.32 mm | - | 0 W/m² | - |
| 1777351239 | 15° C | 95% | 1005.6 hPa | 6.1 mm | - | 0 W/m² | - |
| 1777350938 | 15° C | 95% | 1006.7 hPa | 6.6 mm | - | 0 W/m² | - |
| 1777350633 | 15° C | 95% | 1008 hPa | 4.83 mm | - | 0 W/m² | - |
| 1777350330 | 15° C | 95% | 1008.6 hPa | 1.27 mm | - | 0 W/m² | - |
| 1777350027 | 15° C | 95% | 1008.7 hPa | 1.78 mm | - | 0 W/m² | - |
| 1777349724 | 15° C | 95% | 1009.2 hPa | 4.83 mm | - | 0 W/m² | - |
| 1777349422 | 15° C | 95% | 1009.2 hPa | 4.32 mm | - | 0 W/m² | - |
| 1777349120 | 15° C | 95% | 1009.2 hPa | 3.05 mm | - | 0 W/m² | - |
| 1777348817 | 15.56° C | 95% | 1009.7 hPa | 4.83 mm | - | 0 W/m² | - |
| 1777348515 | 15.56° C | 95% | 1010 hPa | 4.32 mm | - | 0 W/m² | - |
| 1777348213 | 15.56° C | 95% | 1010.1 hPa | 4.83 mm | - | 0 W/m² | - |
| 1777347910 | 15.56° C | 95% | 1010.1 hPa | 6.6 mm | - | 0 W/m² | - |
| 1777347608 | 15.56° C | 94% | 1010.2 hPa | 6.1 mm | - | 0 W/m² | - |
| 1777347303 | 15.56° C | 94% | 1010 hPa | 6.1 mm | - | 0 W/m² | - |
| 1777347000 | 15.56° C | 94% | 1010.2 hPa | 4.32 mm | - | 0 W/m² | - |
| 1777346697 | 15.56° C | 94% | 1010 hPa | 4.32 mm | - | 0 W/m² | - |
| 1777346392 | 15.56° C | 93% | 1010.2 hPa | 3.05 mm | - | 0 W/m² | - |
| 1777346090 | 16.11° C | 93% | 1010.2 hPa | 6.6 mm | - | 0 W/m² | - |
| 1777345787 | 16.11° C | 93% | 1010.3 hPa | 9.65 mm | - | 0 W/m² | - |
| 1777345484 | 16.67° C | 90% | 1010.1 hPa | 3.05 mm | - | 0 W/m² | - |
| 1777345181 | 17.22° C | 86% | 1010 hPa | 0 mm | - | 0 W/m² | - |
| 1777344877 | 17.22° C | 85% | 1009.9 hPa | 0 mm | - | 0 W/m² | - |
| 1777344573 | 17.22° C | 84% | 1009.4 hPa | 0 mm | - | 0 W/m² | - |
* Rain latest hour (hover to see other rain measurements)
** Current wind speed in m/s (hover to see current wind gust speed)